| time (UTC) | temp C | wind direction | speed KPH | gust KPH | rain 1hr cm | rain 24hr cm | rain mn cm | humidity % | barometer mb |
| 20260507105021 | 10 | 0.0 | 0.0 | 0.00 | 0.00 | 0.00 | 65 | 1020.7 | |
| 20260507104022 | 10 | 0.0 | 3.2 | 0.00 | 0.00 | 0.00 | 65 | 1020.6 | |
| 20260507103022 | 10 | 0.0 | 0.0 | 0.00 | 0.00 | 0.00 | 65 | 1020.8 | |
| 20260507102042 | 10 | 0.0 | 1.6 | 0.00 | 0.00 | 0.00 | 64 | 1020.8 | |
| 20260507101021 | 10 | 0.0 | 0.0 | 0.00 | 0.00 | 0.00 | 64 | 1020.9 | |
| 20260507100042 | 10 | 0.0 | 0.0 | 0.00 | 0.00 | 0.00 | 64 | 1020.9 | |
| 20260507095022 | 10 | 0.0 | 0.0 | 0.00 | 0.00 | 0.00 | 64 | 1020.6 | |
| 20260507094043 | 10 | 0.0 | 0.0 | 0.00 | 0.00 | 0.00 | 64 | 1020.7 | |
| 20260507093041 | 10 | 0.0 | 1.6 | 0.00 | 0.00 | 0.00 | 64 | 1020.7 | |
| 20260507092022 | 10 | 0.0 | 1.6 | 0.00 | 0.00 | 0.00 | 64 | 1020.7 | |
| 20260507091021 | 10 | 0.0 | 0.0 | 0.00 | 0.00 | 0.00 | 63 | 1020.7 | |
| 20260507090021 | 10 | 0.0 | 0.0 | 0.00 | 0.00 | 0.00 | 63 | 1020.6 | |
| 20260507085021 | 10 | 0.0 | 0.0 | 0.00 | 0.00 | 0.00 | 63 | 1020.6 | |
| 20260507084021 | 11 | 0.0 | 1.6 | 0.00 | 0.00 | 0.00 | 64 | 1020.5 | |
| 20260507083022 | 11 | 203 | 1.6 | 4.8 | 0.00 | 0.00 | 0.00 | 64 | 1020.5 |
| 20260507082102 | 11 | 180 | 1.6 | 3.2 | 0.00 | 0.00 | 0.00 | 64 | 1020.5 |
| 20260507081029 | 11 | 180 | 3.2 | 8.0 | 0.00 | 0.00 | 0.00 | 64 | 1020.5 |
| 20260507080021 | 11 | 180 | 1.6 | 6.4 | 0.00 | 0.00 | 0.00 | 64 | 1020.6 |
| 20260507075022 | 11 | 203 | 1.6 | 4.8 | 0.00 | 0.00 | 0.00 | 65 | 1020.6 |
| 20260507074021 | 11 | 180 | 4.8 | 9.7 | 0.00 | 0.00 | 0.00 | 65 | 1020.5 |
| 20260507073021 | 11 | 180 | 1.6 | 3.2 | 0.00 | 0.00 | 0.00 | 65 | 1020.5 |
| 20260507072022 | 11 | 180 | 1.6 | 6.4 | 0.00 | 0.00 | 0.00 | 65 | 1020.5 |
| 20260507071021 | 11 | 203 | 1.6 | 8.0 | 0.00 | 0.00 | 0.00 | 65 | 1020.4 |
| 20260507070021 | 11 | 203 | 1.6 | 3.2 | 0.00 | 0.00 | 0.00 | 65 | 1020.5 |
| 20260507065023 | 11 | 180 | 1.6 | 4.8 | 0.00 | 0.00 | 0.00 | 65 | 1020.5 |
| 20260507064042 | 11 | 180 | 1.6 | 3.2 | 0.00 | 0.00 | 0.00 | 65 | 1020.5 |
| 20260507063020 | 11 | 203 | 1.6 | 6.4 | 0.00 | 0.00 | 0.00 | 65 | 1020.5 |
| 20260507062020 | 11 | 203 | 1.6 | 3.2 | 0.00 | 0.00 | 0.00 | 65 | 1020.6 |
| 20260507061020 | 11 | 0.0 | 3.2 | 0.00 | 0.00 | 0.00 | 65 | 1020.7 | |
| 20260507060021 | 11 | 203 | 1.6 | 6.4 | 0.00 | 0.00 | 0.00 | 65 | 1020.6 |
| 20260507055021 | 11 | 0.0 | 3.2 | 0.00 | 0.00 | 0.00 | 65 | 1020.5 | |
| 20260507054020 | 11 | 0.0 | 3.2 | 0.00 | 0.00 | 0.00 | 65 | 1020.7 | |
| 20260507053041 | 12 | 0.0 | 3.2 | 0.00 | 0.00 | 0.00 | 65 | 1020.6 | |
| 20260507052020 | 12 | 203 | 1.6 | 8.0 | 0.00 | 0.00 | 0.00 | 64 | 1020.6 |
| 20260507051453 | 12 | 0.0 | 3.2 | 0.00 | 0.00 | 0.00 | 64 | 1020.6 | |
| 20260507050041 | 12 | 0.0 | 8.0 | 0.00 | 0.00 | 0.00 | 64 | 1020.6 | |
| 20260507045020 | 12 | 203 | 1.6 | 6.4 | 0.00 | 0.00 | 0.00 | 64 | 1020.6 |
| 20260507044020 | 12 | 180 | 1.6 | 8.0 | 0.00 | 0.00 | 0.00 | 63 | 1020.7 |
| 20260507043020 | 12 | 0.0 | 4.8 | 0.00 | 0.00 | 0.00 | 63 | 1020.5 | |
| 20260507042034 | 12 | 203 | 1.6 | 3.2 | 0.00 | 0.00 | 0.00 | 63 | 1020.4 |
| 20260507041040 | 12 | 203 | 1.6 | 4.8 | 0.00 | 0.00 | 0.00 | 62 | 1020.4 |
| 20260507040020 | 12 | 225 | 1.6 | 3.2 | 0.00 | 0.00 | 0.00 | 62 | 1020.5 |
| 20260507035100 | 12 | 0.0 | 3.2 | 0.00 | 0.00 | 0.00 | 62 | 1020.4 | |
| 20260507034040 | 13 | 248 | 1.6 | 6.4 | 0.00 | 0.00 | 0.00 | 61 | 1020.3 |
| 20260507033020 | 13 | 180 | 1.6 | 8.0 | 0.00 | 0.00 | 0.00 | 61 | 1020.3 |
| 20260507032020 | 13 | 225 | 1.6 | 4.8 | 0.00 | 0.00 | 0.00 | 60 | 1020.2 |
| 20260507031021 | 13 | 203 | 3.2 | 6.4 | 0.00 | 0.00 | 0.00 | 60 | 1020.2 |
| 20260507030020 | 13 | 203 | 1.6 | 4.8 | 0.00 | 0.00 | 0.00 | 59 | 1020.0 |
| 20260507025020 | 13 | 180 | 1.6 | 4.8 | 0.00 | 0.00 | 0.00 | 59 | 1020.1 |
| 20260507024020 | 13 | 198 | 4.8 | 0.0 | 0.00 | 0.00 | 0.00 | 58 | 1020.1 |
| 20260507023933 | 13 | 203 | 3.2 | 9.7 | 0.00 | 0.00 | 0.00 | 58 | 1019.7 |